This demonstration page uses our WeatherBlox Daily Observations layout. Learn more.

Left ArrowRight Arrow

38.20091, -84.87328

Hourly Observations for April 10, 2022

Temp ( °F °C ) Dew Point ( °F °C ) Humidity (%) Winds ( mph kmh ) Pressure ( in mb ) Visibility ( mi km ) Precip ( " mm )
12:53 am 00:53 Clear 31 -0.6 26 -3.3 82 82 Calm 30.02 1017 10 16 0.00 0.00
1:53 am 01:53 Clear 30 -1.1 25 -3.9 82 82 Calm 30.04 1017 10 16 0.00 0.00
2:53 am 02:53 Clear 29 -1.7 24 -4.4 82 82 Calm 30.04 1017 10 16 0.00 0.00
3:53 am 03:53 Clear 28 -2.2 25 -3.9 88 88 Calm 30.04 1017 10 16 0.00 0.00
4:53 am 04:53 Clear 28 -2.2 24 -4.4 85 85 Calm 30.04 1017 10 16 0.00 0.00
5:53 am 05:53 Clear 28 -2.2 24 -4.4 85 85 Calm 30.06 1018 10 16 0.00 0.00
6:53 am 06:53 Clear 28 -2.2 23 -5 81 81 Calm 30.06 1018 10 16 0.00 0.00
7:53 am 07:53 Sunny 30 -1.1 25 -3.9 82 82 Calm 30.09 1019 10 16 0.00 0.00
8:53 am 08:53 Sunny 38 3.3 30 -1.1 73 73 Calm 30.10 1019 10 16 0.00 0.00
9:53 am 09:53 Sunny 46 7.8 31 -0.6 56 56 VRB 5 7 30.11 1020 10 16 0.00 0.00
10:53 am 10:53 Sunny 51 10.6 30 -1.1 44 44 S 9 15 30.10 1019 10 16 0.00 0.00
11:53 am 11:53 Sunny 53 11.7 30 -1.1 41 41 VRB 7 11 30.10 1019 10 16 0.00 0.00
12:53 pm 12:53 Sunny 56 13.3 31 -0.6 39 39 SSE 8 13 30.07 1018 10 16 0.00 0.00
1:53 pm 13:53 Sunny 59 15 32 0 36 36 S 14 22 30.04 1017 10 16 0.00 0.00
2:53 pm 14:53 Sunny 60 15.6 33 0.6 36 36 SE 7 11 30.00 1016 10 16 0.00 0.00
3:53 pm 15:53 Sunny 63 17.2 32 0 31 31 SSE 13 20 29.96 1015 10 16 0.00 0.00
4:53 pm 16:53 Sunny 64 17.8 34 1.1 33 33 SE 12 19 29.94 1014 10 16 0.00 0.00
5:53 pm 17:53 Sunny 65 18.3 33 0.6 31 31 SSE 13 20 29.91 1013 10 16 0.00 0.00
6:53 pm 18:53 Sunny 64 17.8 34 1.1 33 33 SE 8 13 29.90 1013 10 16 0.00 0.00
7:53 pm 19:53 Sunny 62 16.7 34 1.1 35 35 SE 7 11 29.88 1012 10 16 0.00 0.00
8:53 pm 20:53 Clear 58 14.4 35 1.7 42 42 ESE 8 13 29.88 1012 10 16 0.00 0.00
9:53 pm 21:53 Clear 57 13.9 35 1.7 44 44 SE 9 15 29.87 1012 10 16 0.00 0.00
10:53 pm 22:53 Clear 59 15 35 1.7 41 41 SSE 9 15 29.87 1011 10 16 0.00 0.00
11:53 pm 23:53 Clear 57 13.9 35 1.7 44 44 SSE 8 13 29.87 1012 10 16 0.00 0.00

Powered by AerisWeather